KASHKBED

Guest
Details From KASH - Boire Fld
To KBED - Laurence G Hanscom Fld
Flight Number -
Tags Decoded
Created
Modified
Stats Distance 22 nm / 40 km
Max Altitude 0 ft / 0 m
Waypoints 2
Social Downloads 0
Likes 0
Share VATSIM

Download

Looking for another format? Having issues loading an existing format? Contact us
Advertisement - Login to hide

Notes

Decoded

Route

KASH KBED

ID Type Via Altitude Latitude Longitude Leg Dist Tot Dist Heading (true) Name
O KASH APT - 0 ft / 0 m 42.78583˚ -71.52339˚ - 0 nm - -
O KBED APT - 0 ft / 0 m 42.46344˚ -71.29687˚ 21 nm 21 nm 153° / 153° -

Altitude Profile

Advertisement - Login to hide

KASH

Details ICAO KASH (ASH)
Name Boire Field Nashua
Region United States
Timezone America/New_York (UTC-4.0)
Stats Elevation 199 ft / 61 m (AMSL)
Location 42.781757° -71.514774°
Runways 1
Magnetic Variation 14.546° W

METAR

KASH 251656Z 27010G20KT 10SM CLR 29/11 A2982 RMK AO2 SLP105 T02940106

Decode

TAF

Not found

Departure Runways

ID Width Length Bearing (true) Bearing (mag) Surface Threshold Offset Overrun Length
14 98 ft / 30 m 5,493 ft / 1,674 m 122.78° 137.33° Asphalt 0 ft / 0 m 0 ft / 0 m
32 98 ft / 30 m 5,493 ft / 1,674 m 302.80° 317.35° Asphalt 0 ft / 0 m 0 ft / 0 m

KBED

Details ICAO KBED (BED)
Name Laurence G Hanscom Field
Region United States
Timezone America/New_York (UTC-4.0)
Stats Elevation 133 ft / 41 m (AMSL)
Location 42.469826° -71.289318°
Runways 2
Magnetic Variation 14.558° W

METAR

KBED 251656Z 28014G21KT 10SM SCT250 30/10 A2982 RMK AO2 SLP108 T03000100

Decode

TAF

TAF KBED 251125Z 2512/2612 25008KT P6SM FEW250 FM251500 26011G25KT P6SM FEW250 FM260000 24007KT P6SM SCT110 FM260500 23006KT P6SM FEW120

Decode

Destination Runways

ID Width Length Bearing (true) Bearing (mag) Surface Threshold Offset Overrun Length
05 151 ft / 46 m 5,105 ft / 1,556 m 37.02° 51.58° Asphalt 0 ft / 0 m 584 ft / 178 m
11 151 ft / 46 m 6,985 ft / 2,129 m 97.16° 111.72° Asphalt 0 ft / 0 m 1,001 ft / 305 m
23 151 ft / 46 m 5,105 ft / 1,556 m 217.03° 231.59° Asphalt 0 ft / 0 m 899 ft / 274 m
29 151 ft / 46 m 6,985 ft / 2,129 m 277.18° 291.74° Asphalt 0 ft / 0 m 1,040 ft / 317 m

Approach Navaids

Runway Type Ident Frequency Range Bearing (true) Bearing (mag) Slope Elevation
11 Localiser IBED 111.15 MHz 18 nm / 33 km 97.17° 111.73° - 133 ft / 41 m (AMSL)
11 Glidescope IBED 111.15 MHz 10 nm / 19 km 97.17° 111.73° 3.00° 128 ft / 39 m (AMSL)
11 DME IBED 111.15 MHz 18 nm / 33 km - - - 133 ft / 41 m (AMSL)
29 Localiser IULJ 111.15 MHz 18 nm / 33 km 277.16° 291.72° - 133 ft / 41 m (AMSL)
29 Glidescope IULJ 111.15 MHz 10 nm / 19 km 277.17° 291.73° 3.00° 126 ft / 38 m (AMSL)
29 DME IULJ 111.15 MHz 18 nm / 33 km - - - 133 ft / 41 m (AMSL)

Popular Alternatives